Tri-Cities, TN

4:39 PM EST on December 12, 2019 (GMT -0500)
Tri-Cities Regional Tennessee / Virginia

Weather History for KTRI - October, 2019

Change the Weather History Date:

Tuesday, October 8, 2019

  Actual Average Record
Temperature  
Mean Temperature 65 °F 59 °F  
Max Temperature 73 °F 72 °F 88 °F (2007)
Min Temperature 56 °F 46 °F 27 °F (2000)
Degree Days  
Heating Degree Days 0 7  
Month to date heating degree days 0 47  
Since 1 July heating degree days 0 100  
Cooling Degree Days 0 1  
Month to date cooling degree days 65 8  
Year to date cooling degree days 1450 976  
Growing Degree Days 14 (Base 50)    
Moisture  
Dew Point 57 °F    
Average Humidity 78    
Maximum Humidity 90    
Minimum Humidity 66    
Precipitation  
Precipitation 0.03 in 0.07 in 1.31 in (2017)
Month to date precipitation 0.72 0.55  
Year to date precipitation 42.33 32.99  
Snow  
Snow 0.00 in 0.00 in - ()
Month to date snowfall 0.0 0.0  
Since 1 July snowfall 0.0 0.0  
Since 1 September snowfall 0.0 0.0  
Snow Depth 0.00 in    
Sea Level Pressure  
Sea Level Pressure 30.07 in    
Wind  
Wind Speed 3 mph (NE)    
Max Wind Speed 8 mph    
Max Gust Speed 13 mph    
Visibility 10 miles    
Events      
T = Trace of Precipitation, MM = Missing Value Source: NWS Daily Summary

Daily Weather History Graph

Daily Weather History Graph

Search for Another Location

Airport or City:

Astronomy

Oct. 08, 2019 Rise Set
Actual Time 7:30 AM EDT 7:03 PM EDT
Civil Twilight 7:04 AM EDT 7:29 PM EDT
Nautical Twilight 6:34 AM EDT 7:58 PM EDT
Astronomical Twilight 6:04 AM EDT 8:28 PM EDT
Moon 4:51 PM EDT (10/8) 2:29 AM EDT (10/8)
Length of Visible Light 12h 24m
Length of Day
11h 32m
Waxing Gibbous, 77% of the Moon is Illuminated
Oct 8
Waxing Gibbous
Oct 13
Full
Oct 21
Last Quarter
Oct 27
New
Nov 4
First Quarter

Hourly Weather History & Observations

Time (EDT) Temp. Dew Point Humidity Pressure Visibility Wind Dir Wind Speed Gust Speed Precip Events Conditions
12:02 AM 60.1 °F 55.9 °F 86% 30.13 in 10.0 mi North 6.9 mph - N/A   Overcast
12:53 AM 59.0 °F 55.9 °F 90% 30.06 in 10.0 mi Variable 4.6 mph - 0.01 in   Overcast
1:53 AM 59.0 °F 55.9 °F 90% 30.05 in 10.0 mi Variable 3.5 mph - N/A   Overcast
2:53 AM 59.0 °F 55.0 °F 87% 30.05 in 10.0 mi Calm Calm - N/A   Overcast
3:53 AM 59.0 °F 55.0 °F 87% 30.05 in 10.0 mi North 3.5 mph - N/A   Overcast
4:53 AM 59.0 °F 55.0 °F 87% 30.05 in 10.0 mi Variable 3.5 mph - N/A   Overcast
5:53 AM 59.0 °F 55.0 °F 87% 30.06 in 10.0 mi NNE 3.5 mph - N/A   Overcast
6:53 AM 59.0 °F 55.0 °F 87% 30.07 in 10.0 mi Variable 3.5 mph - N/A   Overcast
7:53 AM 59.0 °F 55.0 °F 87% 30.07 in 10.0 mi Calm Calm - N/A   Overcast
8:53 AM 60.1 °F 55.0 °F 83% 30.08 in 10.0 mi North 4.6 mph - N/A   Overcast
9:53 AM 61.0 °F 55.9 °F 83% 30.09 in 10.0 mi NNW 4.6 mph - 0.00 in   Overcast
10:53 AM 64.0 °F 57.0 °F 78% 30.09 in 10.0 mi East 5.8 mph - N/A   Overcast
11:53 AM 64.9 °F 57.0 °F 75% 30.08 in 10.0 mi East 4.6 mph - N/A   Overcast
12:53 PM 66.9 °F 57.9 °F 73% 30.07 in 10.0 mi Calm Calm - N/A   Overcast
1:53 PM 69.1 °F 59.0 °F 70% 30.05 in 10.0 mi Calm Calm - N/A   Overcast
2:42 PM 71.1 °F 59.0 °F 66% 30.08 in 10.0 mi Calm Calm - N/A   Mostly Cloudy
2:53 PM 72.0 °F 60.1 °F 66% 30.02 in 10.0 mi Variable 5.8 mph - N/A   Mostly Cloudy
2:55 PM 72.0 °F 60.1 °F 66% 30.08 in 10.0 mi Variable 5.8 mph - N/A   Mostly Cloudy
3:53 PM 72.0 °F 59.0 °F 64% 30.01 in 10.0 mi NNE 5.8 mph - N/A   Mostly Cloudy
4:28 PM 71.6 °F 59.0 °F 64% 30.08 in 10.0 mi Variable 4.6 mph - N/A   Overcast
4:53 PM 70.0 °F 59.0 °F 68% 30.02 in 10.0 mi Variable 5.8 mph - N/A   Overcast
5:53 PM 64.9 °F 59.0 °F 81% 30.04 in 10.0 mi Variable 3.5 mph - 0.03 in   Overcast
6:53 PM 63.0 °F 59.0 °F 87% 30.05 in 10.0 mi East 5.8 mph - N/A   Overcast
7:53 PM 61.0 °F 57.9 °F 90% 30.06 in 10.0 mi East 3.5 mph - N/A   Mostly Cloudy
8:53 PM 60.1 °F 57.0 °F 90% 30.08 in 10.0 mi Calm Calm - N/A   Mostly Cloudy
9:53 PM 59.0 °F 55.0 °F 87% 30.08 in 10.0 mi ENE 4.6 mph - N/A   Scattered Clouds
10:53 PM 57.9 °F 54.0 °F 87% 30.09 in 10.0 mi Calm Calm - N/A   Partly Cloudy
11:53 PM 57.0 °F 54.0 °F 89% 30.09 in 10.0 mi Calm Calm - N/A   Partly Cloudy